TimeMST,TemperatureF,Dew PointF,Humidity,Sea Level PressureIn,VisibilityMPH,Wind Direction,Wind SpeedMPH,Gust SpeedMPH,PrecipitationIn,Events,Conditions,WindDirDegrees,DateUTC
12:56 AM,50.0,16.0,26,29.93,10.0,SW,8.1,-,N/A,,Clear,230,2013-05-21 07:56:00
1:56 AM,48.9,16.0,27,29.92,10.0,Calm,Calm,-,N/A,,Clear,0,2013-05-21 08:56:00
2:56 AM,45.0,15.1,30,29.95,10.0,SW,3.5,-,N/A,,Clear,220,2013-05-21 09:56:00
3:56 AM,42.1,14.0,32,29.96,10.0,SW,5.8,-,N/A,,Clear,220,2013-05-21 10:56:00
4:56 AM,43.0,15.1,32,29.97,10.0,Calm,Calm,-,N/A,,Clear,0,2013-05-21 11:56:00
5:56 AM,42.1,16.0,35,29.99,10.0,ESE,5.8,-,N/A,,Clear,110,2013-05-21 12:56:00
6:56 AM,48.9,18.0,29,29.97,10.0,East,5.8,-,N/A,,Clear,100,2013-05-21 13:56:00
7:56 AM,57.0,19.9,24,29.97,10.0,Calm,Calm,-,N/A,,Clear,0,2013-05-21 14:56:00
8:56 AM,64.0,25.0,23,29.97,10.0,Calm,Calm,-,N/A,,Clear,0,2013-05-21 15:56:00
9:56 AM,70.0,21.9,16,29.94,10.0,ESE,6.9,-,N/A,,Clear,110,2013-05-21 16:56:00
10:56 AM,75.0,21.0,13,29.92,10.0,Calm,Calm,-,N/A,,Clear,0,2013-05-21 17:56:00
11:56 AM,75.9,19.0,12,29.89,10.0,Variable,5.8,-,N/A,,Clear,0,2013-05-21 18:56:00
12:56 PM,81.0,18.0,10,29.83,10.0,SE,11.5,-,N/A,,Clear,140,2013-05-21 19:56:00
1:56 PM,82.9,18.0,9,29.81,10.0,Variable,6.9,19.6,N/A,,Clear,0,2013-05-21 20:56:00
2:56 PM,84.9,14.0,7,29.78,10.0,WSW,11.5,-,N/A,,Clear,240,2013-05-21 21:56:00
3:56 PM,82.9,18.0,9,29.78,10.0,SW,13.8,23.0,N/A,,Clear,230,2013-05-21 22:56:00
4:56 PM,84.9,17.1,8,29.75,10.0,West,13.8,21.9,N/A,,Clear,270,2013-05-21 23:56:00
5:56 PM,82.9,19.0,9,29.75,10.0,WSW,17.3,32.2,N/A,,Clear,240,2013-05-22 00:56:00
6:56 PM,78.1,19.9,11,29.75,10.0,WSW,16.1,23.0,N/A,,Clear,240,2013-05-22 01:56:00
7:56 PM,75.0,19.0,12,29.74,10.0,SW,12.7,-,N/A,,Clear,230,2013-05-22 02:56:00
8:56 PM,70.0,18.0,14,29.76,10.0,SSW,15.0,-,N/A,,Clear,210,2013-05-22 03:56:00
9:56 PM,68.0,19.0,15,29.76,10.0,SW,15.0,-,N/A,,Clear,220,2013-05-22 04:56:00
10:56 PM,64.9,18.0,16,29.74,10.0,SSW,16.1,-,N/A,,Clear,210,2013-05-22 05:56:00
11:56 PM,64.9,17.1,16,29.75,10.0,SW,13.8,-,N/A,,Clear,220,2013-05-22 06:56:00